sat.trackr.live / text

‹ back to catalog

STARLINK-35695

NORAD 66558 · 2025-268B

PAYLOAD ACTIVE UNKNOWN

§ Identity

Operator
Country
US
Launch date
2025-11-21
Launch site
AFETR
Launch vehicle
Mass (kg)
RCS (m²)

Purposes: comms

External: N2YO · Heavens-Above · Gunter

§ Orbital elements

Epoch: 2026-09-20T11:08:21.610464Z

Period
94.27 min
Inclination
42.9992°
Eccentricity
0.0000572
Mean motion
15.27584462 rev/d
Perigee alt
482.6 km
Apogee alt
483.4 km
Semi-major
6,861.2 km
B*
3.2314e-4
RAAN
327.4595°
Arg perigee
262.1896°
Mean anomaly
97.8890°
Rev number
4,774

§ Raw data

STARLINK-356951 66558U 25268B   26263.46413901  .00008642  00000+0  32314-3 0  99952 66558  42.9992 327.4595 0000572 262.1896  97.8890 15.27584462 47747

JSON: /api/v1/satellites/66558 · /tle

For live sub-satellite position, see the globe view (requires WebGL).

§ Visibility from observer

Set your observer location to see the next 7 days of passes ≥ 10°. The values pass through the URL so the page stays shareable.

No JS? Fill the form by hand. The geolocation button needs JavaScript.